SL-14 DEB, 45287

Orbit data source: Space-Track

SL-14 DEB, 45287 is space debris in LEO originally from a launch on Thu, 15 Aug 1991 UTC launched from the Plesetsk Missile And Space Complex (PKMTR). Debris objects in space refer to the collection of defunct objects orbiting the Earth. Examples of debris include non-operational satellites, rocket bodies, and fragments generated from explosions, collisions, or faulty payload assembly.

Loading next visibility...
Identifier
45287, 1991-056Z
Orbit
LEO
Country
Flag of CISCIS
Related business
Manufacturer
Unknown
Mission
Spacecraft
Bus & Motor
Unknown
Mass
Unknown
Launch date (UTC)
1991-08-15 (34 years ago)
Launch vehicle
Unknown
Launch site
Plesetsk Missile And Space Complex (PKMTR)
Object type
Payload
Rocket body
Debris
Shape & HBR
Unknown shape, 0.1 m
Radar Cross Section
Small (<0.1 m²)

Expand to show TLE details & history
Last TLE update: 13 hours ago

TLE from 13 hours ago
0 SL-14 DEB
1 45287U 91056Z   25286.93827879  .00000672  00000-0  13354-2 0  9996
2 45287  82.5669 279.0348 0070819 185.3930 174.6447 13.32711120274727
Epoch: 2025-10-13T22:31Z
TLE epoch observation values (Epoch: 2025-10-13T22:31:07.287Z)
Latitude
-0.00002°
Longitude
-81.47945°
Altitude
1,192.384 km
Speed
7.232 km/s
True Right ascension
18h 36m 08s
True Declination
0° 00' 00"
Sunlit
Object was in daylight at epoch
Visualization orbit readout
Latitude
Unknown
Longitude
Unknown
Altitude
Unknown
Speed
Unknown
Apparent Right ascension
Unknown
Apparent Declination
Unknown
Sunlit
N/A
Visualization observer readout
Local Sidereal Time
06:14:09
Azimuth
Unknown
Elevation
Unknown
Doppler factor
Unknown
Orbital elements
Apogee altitude
1,186.975 km
Perigee altitude
1,080.578 km
Semi-major axis
7,511.914 km
Eccentricity
0.00708
Inclination
82.5669°
RAAN
279.0348°
Arg. of periapsis
185.393°
True anomaly
174.71978°
Mean anomaly
174.6447°
Eccentric anomaly
174.68231°
Mean motion
3.33363 °/min
Orbital period
107.99 mins
BSTAR
0.0013354
Loading maneuver chart data...
Computing Atmospheric mass density...
Loading historical data...
Loading historical data...
Loading historical data...
Loading historical data...
Loading historical data...
Loading historical data...
Loading historical data...

Documentation

Showing up to 5 results
|